GFSSE_700_rhum_000.txt.gz
RH
47 51 60 57 51 56 51 47 44 42 38 34 32 29 24 23 24 23 7 8 6 8 10 9 9 11 10 6 3 2 3 4 6 9 11 15 28 39 41 41 50 58 61
53 46 59 56 53 58 50 48 44 39 39 39 31 28 24 23 22 12 5 5 6 14 17 13 6 6 4 3 3 5 5 4 5 9 10 12 21 37 37 42 43 40 51
64 52 53 53 57 58 52 47 39 40 42 31 28 25 22 19 9 5 5 6 15 20 20 19 12 8 8 8 7 7 4 4 5 5 9 12 14 22 38 44 53 50 38
63 54 52 54 61 54 49 41 38 38 32 26 23 21 17 5 2 4 10 19 25 26 26 26 26 27 27 26 24 22 20 16 15 11 8 10 12 17 32 26 40 49 56
40 55 54 56 57 52 40 34 32 27 23 21 17 16 4 5 10 15 21 26 26 25 25 27 27 26 26 26 27 28 29 28 23 21 18 8 12 12 24 24 26 41 53
54 51 54 57 49 40 38 33 24 24 22 19 15 4 7 12 20 24 26 26 27 28 30 29 27 24 23 22 22 22 22 28 30 27 24 22 8 9 18 23 20 37 45
53 55 55 48 42 42 26 21 23 23 16 8 3 6 16 22 27 26 29 30 33 34 32 33 34 30 25 23 21 20 20 22 25 32 31 27 24 17 13 17 6 8 35
54 50 49 44 24 16 22 24 19 13 4 4 10 20 26 28 26 29 33 34 35 35 38 40 40 36 33 31 30 26 23 22 23 26 32 35 32 28 27 20 16 12 47
50 33 14 15 20 22 18 17 7 6 12 23 25 28 30 31 33 34 36 38 40 41 44 46 47 44 42 41 39 35 30 27 24 22 27 32 37 36 32 34 35 30 32
14 14 20 21 14 3 4 6 14 25 28 28 30 34 34 34 36 38 40 42 44 46 49 52 55 53 49 46 45 43 38 34 30 26 24 22 31 37 38 37 41 48 43
21 26 21 12 8 7 15 20 25 29 29 32 35 35 36 37 38 37 38 39 40 46 48 50 52 55 56 54 52 49 44 38 37 29 24 23 22 23 33 39 40 43 41
25 24 15 13 10 20 24 27 32 34 35 37 37 38 39 38 37 37 37 40 42 47 51 53 54 55 59 59 60 57 53 48 45 43 28 22 21 23 22 21 35 42 43
22 23 15 15 20 25 30 33 36 38 40 39 40 41 41 42 43 43 42 40 43 52 56 55 54 54 56 56 51 50 39 39 50 46 42 28 21 17 18 21 18 23 39
39 42 36 34 40 46 35 36 39 41 41 42 43 46 50 56 55 50 49 45 50 58 62 61 60 58 54 48 50 52 48 36 32 44 49 40 31 27 22 17 20 21 18
54 54 52 58 51 61 47 52 56 48 49 51 51 57 62 64 63 56 54 54 61 64 61 68 68 62 64 63 58 61 51 40 38 32 28 36 38 35 32 16 18 18 20
56 65 74 81 74 64 54 49 62 66 61 56 69 73 68 58 72 62 61 66 70 69 74 76 73 68 66 67 64 60 52 47 43 38 34 32 35 35 32 23 16 16 16
76 76 75 87 92 87 83 81 90 98 86 74 82 74 72 74 74 76 75 77 82 88 87 84 76 72 70 64 56 51 49 47 46 45 41 38 34 34 31 24 18 15 14
69 80 82 77 81 85 97 92 96 87 90 86 82 76 78 75 79 81 80 84 97 95 85 80 79 69 66 47 37 32 39 49 51 51 48 44 39 34 31 29 23 19 16
64 80 80 77 82 92 99 98 94 75 76 77 86 86 89 97 91 91 99 97 96 84 70 66 66 56 34 22 23 38 58 64 61 57 58 55 50 45 42 36 33 31 26
69 79 77 85 98 99 96 86 74 71 77 86 96 100 98 91 93 95 96 76 65 64 63 58 44 35 35 34 34 41 53 62 59 54 50 58 60 53 47 45 42 37 38
74 88 92 95 96 89 80 73 68 82 93 100 99 86 80 80 70 63 64 65 62 51 42 38 35 40 46 45 52 58 62 60 58 54 51 45 58 68 64 55 50 45 43
76 73 76 82 85 72 65 85 99 98 93 85 69 64 60 50 49 47 46 48 45 41 36 37 48 61 65 62 61 60 50 49 41 42 37 30 31 38 49 64 64 54 50
50 44 46 54 55 64 70 67 71 62 55 50 49 47 46 45 44 45 42 38 27 40 54 71 67 88 89 73 64 52 38 32 29 26 26 23 19 15 13 12 13 25 30
32 37 48 56 64 65 60 62 61 56 48 46 46 46 49 52 58 52 43 35 51 81 98 94 66 50 54 50 44 35 33 30 25 25 20 15 14 14 9 8 9 9 9
41 40 44 51 59 54 46 44 41 42 44 51 56 47 46 50 55 53 45 69 63 97 73 33 37 52 72 67 51 45 41 36 20 16 14 19 18 14 7 10 15 12 12
43 53 61 61 58 50 49 49 55 63 68 70 66 59 58 56 43 30 43 57 36 20 19 46 50 71 65 61 58 53 44 41 26 17 14 15 16 13 19 27 30 32 34

GFSSE_700_rhum_003.txt.gz
RH
67 59 64 58 53 56 57 53 50 41 39 37 30 28 26 25 22 16 6 6 9 15 16 13 8 6 4 3 3 3 3 4 5 7 8 10 18 29 38 47 46 41 33
62 60 69 57 58 59 55 54 46 40 42 38 32 30 27 21 16 7 7 10 19 21 21 18 13 6 3 2 2 2 1 3 3 5 8 10 16 24 32 34 34 36 33
66 65 66 60 61 62 56 55 43 41 43 32 29 24 21 12 3 5 11 21 25 25 25 25 24 25 24 23 22 22 20 14 6 6 6 11 12 17 20 39 48 32 24
62 61 61 61 67 63 58 48 39 41 36 26 21 17 13 2 6 16 24 25 24 24 25 26 25 24 23 22 21 22 24 25 21 18 15 10 13 14 56 45 48 20 30
58 55 59 64 66 59 53 38 36 34 26 23 20 14 4 10 19 25 26 26 28 30 30 30 30 29 26 22 20 19 20 22 27 26 22 19 11 16 46 44 34 19 31
60 63 61 64 61 57 42 37 27 27 27 19 12 5 11 20 26 26 29 32 33 32 34 35 35 35 33 30 26 21 19 20 22 27 30 26 23 9 33 38 52 45 39
70 62 59 59 54 44 43 28 30 29 16 4 4 13 21 26 27 31 33 34 35 35 38 39 40 40 41 40 38 35 29 23 20 22 25 31 30 25 19 17 31 24 13
59 54 50 45 42 36 24 33 26 14 3 6 19 24 27 28 32 33 36 40 41 42 43 44 45 41 44 46 45 44 40 34 28 23 21 23 29 32 30 26 20 15 17
54 49 44 25 19 26 30 25 7 6 19 25 27 30 31 33 36 40 41 42 43 44 46 46 46 47 49 51 50 48 45 42 36 32 25 22 21 24 32 33 30 32 38
41 17 17 22 18 7 7 6 17 29 28 29 34 34 35 37 40 40 42 44 47 47 49 48 47 47 48 54 52 48 45 46 43 39 39 29 21 20 19 22 36 38 37
14 21 21 15 4 8 15 28 32 30 31 37 38 38 39 41 40 41 42 42 45 48 52 50 55 54 47 50 56 55 50 44 37 40 43 39 33 22 18 18 17 27 42
25 24 16 13 19 29 33 34 35 36 38 40 40 42 44 45 44 45 45 44 44 42 43 48 58 57 50 51 52 45 40 40 38 31 28 43 41 34 23 17 19 16 19
28 30 20 26 33 37 39 42 43 42 42 43 45 46 48 49 54 59 54 52 50 45 49 60 58 54 46 41 44 44 39 30 34 40 27 26 36 43 35 26 27 20 15
36 28 28 29 33 38 40 42 46 47 49 56 52 52 55 57 58 61 65 60 54 56 65 65 63 70 65 51 46 38 31 24 22 25 35 37 34 26 27 35 33 32 21
46 50 44 42 54 45 42 46 49 52 63 70 73 70 73 66 59 63 76 69 70 73 75 68 69 72 66 58 51 41 35 26 20 17 16 15 19 29 30 27 28 31 28
62 63 60 61 46 55 50 42 49 67 85 85 96 98 99 99 93 80 75 73 77 78 84 85 78 79 67 62 51 47 43 32 21 18 21 19 17 24 32 33 30 28 28
69 73 79 84 79 64 57 65 60 82 69 79 62 87 99 97 99 88 87 83 76 85 74 85 89 71 60 56 54 43 33 27 26 29 32 34 34 33 38 40 37 34 30
72 81 80 80 79 84 95 98 97 79 75 59 82 97 99 100 96 88 85 73 75 88 91 78 57 55 54 48 38 33 34 33 32 34 35 36 41 39 34 33 40 39 34
75 78 82 82 84 93 98 78 80 70 66 80 98 100 100 98 90 81 71 82 88 72 54 51 48 42 38 36 33 30 25 28 33 35 33 35 38 40 38 29 23 33 42
66 78 86 98 99 90 82 75 66 60 65 75 80 78 84 82 75 65 58 48 48 46 43 39 41 36 30 29 25 28 26 22 38 36 36 37 34 31 31 35 36 29 38
68 84 96 86 78 80 61 55 56 56 50 56 61 64 64 55 48 47 52 55 53 46 40 35 21 18 36 33 41 49 43 27 27 49 45 34 25 25 19 15 19 23 34
82 85 64 43 43 48 51 55 58 69 61 56 54 52 48 45 44 43 42 44 44 47 45 38 34 23 35 28 34 38 28 18 13 24 27 22 20 21 21 21 21 20 22
42 38 36 43 46 54 59 63 59 54 51 48 44 44 52 49 42 42 46 47 46 42 26 17 18 18 17 15 21 23 23 28 29 33 36 39 36 33 29 24 19 15 14
43 41 41 45 50 62 64 55 49 51 53 54 55 58 54 44 41 38 30 21 17 16 17 14 13 17 23 19 28 43 53 55 54 47 39 38 36 30 18 14 17 17 14
51 45 48 58 62 62 60 57 55 56 54 47 45 45 44 33 18 11 12 15 16 14 11 9 9 12 39 69 83 99 86 75 66 68 60 52 46 30 19 16 14 12 12
46 48 52 58 68 73 74 82 72 62 51 46 44 29 15 12 14 14 11 7 5 4 5 16 38 52 74 50 77 87 66 73 63 47 32 24 20 18 13 9 7 5 6

GFSSE_700_rhum_006.txt.gz
RH
74 70 67 59 52 52 53 56 48 44 42 37 34 30 27 22 17 6 5 7 16 20 20 18 13 6 3 3 3 2 2 2 4 7 8 8 10 14 21 28 31 29 32
72 73 66 56 55 58 58 55 47 45 47 38 33 26 23 16 3 3 11 20 24 24 23 23 23 23 23 21 19 18 16 10 4 5 7 9 9 10 16 28 28 30 29
74 69 64 56 61 60 59 57 47 46 47 33 24 20 16 3 4 17 23 24 24 25 26 26 25 24 22 21 21 21 24 24 19 13 9 10 12 9 10 42 33 45 35
77 68 62 59 66 62 62 55 48 48 36 26 20 16 4 7 17 24 24 26 30 30 29 30 29 28 26 24 21 19 19 19 23 24 21 16 14 14 18 34 48 51 24
81 74 65 63 70 65 64 52 50 40 28 24 18 6 8 18 24 25 28 31 32 32 33 33 32 32 32 30 28 24 20 18 19 21 29 26 21 21 26 43 45 39 29
92 74 65 69 72 73 61 50 40 28 28 18 7 7 18 25 26 30 33 33 34 35 38 38 38 35 34 35 34 33 32 26 21 20 21 26 30 26 22 32 40 40 44
99 70 68 66 81 67 54 43 29 30 15 4 6 18 25 26 31 33 35 38 40 41 43 43 44 44 43 41 40 37 34 32 30 26 23 21 23 28 31 28 22 16 28
97 86 78 77 71 59 49 33 29 12 2 7 18 25 27 31 34 39 41 41 44 45 44 44 44 44 42 45 45 42 41 39 36 31 28 24 22 21 23 30 33 32 26
74 77 88 69 59 36 34 30 7 3 11 17 25 29 31 36 40 42 43 45 46 46 43 44 47 52 50 46 48 49 46 46 43 40 35 33 31 23 20 20 24 34 34
75 70 62 48 38 41 28 6 9 19 18 25 31 32 37 40 42 42 43 45 47 48 46 43 46 47 53 51 44 50 50 47 42 37 34 38 38 33 29 19 18 19 20
56 34 32 35 31 24 13 18 29 24 28 35 36 38 40 42 43 43 44 44 45 46 47 47 50 56 54 48 34 36 42 42 32 37 42 34 27 40 42 35 24 18 20
22 22 16 14 23 24 30 33 29 32 38 41 42 42 43 45 46 48 49 48 50 50 49 51 57 61 58 56 53 38 32 29 28 26 30 37 32 28 27 33 39 31 27
24 23 16 20 30 34 36 35 37 40 42 44 44 45 47 51 55 55 58 61 61 58 55 60 62 62 49 54 49 39 31 27 24 23 21 18 17 20 25 27 25 27 34
31 21 25 31 34 35 38 41 43 44 46 49 52 52 54 66 71 64 66 80 76 68 68 67 64 58 58 54 48 39 31 28 24 22 19 17 18 18 17 14 17 26 28
36 28 29 31 33 36 39 44 49 52 57 65 76 76 79 72 72 78 88 92 79 73 71 72 62 57 59 68 52 45 38 32 27 24 25 19 16 20 20 15 15 22 29
47 45 40 47 46 44 42 45 52 64 76 76 68 73 74 84 90 93 98 99 89 82 77 66 60 71 76 59 50 41 38 34 31 29 29 26 19 21 22 19 15 14 18
66 58 57 57 46 43 42 42 62 79 80 81 57 63 85 83 86 97 100 99 84 70 64 63 59 55 46 44 42 38 38 37 35 33 30 26 25 18 21 22 19 19 16
58 63 66 76 81 83 93 80 90 71 72 74 74 82 97 100 99 100 98 75 67 56 48 44 42 45 44 40 35 29 26 27 25 26 22 20 18 26 27 18 24 25 24
69 72 73 77 74 95 94 67 69 79 85 94 82 76 82 73 77 72 64 58 51 48 46 49 52 50 42 30 20 12 13 14 16 17 19 17 17 12 22 35 28 24 22
71 76 80 87 92 79 60 63 62 59 72 53 41 42 44 47 50 51 50 50 51 52 52 45 36 30 21 12 11 12 13 13 11 10 13 10 9 6 7 8 15 17 10
68 72 82 83 55 34 48 48 49 45 40 42 49 54 55 55 54 55 51 42 37 35 31 28 28 25 18 15 12 9 7 10 37 12 21 13 7 6 8 11 13 13 15
66 83 69 35 32 38 41 42 44 48 57 62 63 60 57 49 46 44 38 34 27 21 15 10 11 12 13 8 4 4 5 14 55 69 20 14 11 15 19 23 24 31 31
68 44 40 38 41 41 39 42 52 56 56 58 56 50 44 41 38 33 24 16 11 10 10 10 8 5 4 4 4 4 4 6 10 19 52 48 50 43 38 35 32 31 33
42 48 43 46 52 54 57 58 63 64 65 61 58 53 45 33 21 16 14 12 9 7 6 5 4 4 3 4 6 10 24 28 31 48 74 90 66 52 47 48 46 43 37
48 45 47 50 53 64 68 69 70 75 75 68 67 58 29 21 19 13 9 7 6 5 4 4 4 4 6 12 52 71 65 48 61 80 79 96 96 90 55 29 19 20 19
51 46 54 61 62 69 75 78 80 82 77 78 73 40 28 21 12 9 7 5 4 4 4 5 6 22 59 100 86 64 50 80 80 98 96 81 52 39 67 20 19 10 8

GFSSE_700_rhum_009.txt.gz
RH
81 75 63 55 48 47 45 50 48 44 40 36 34 30 25 17 6 3 10 20 22 22 22 23 22 22 19 14 9 11 13 8 4 4 5 7 8 8 12 20 29 31 31
73 69 67 54 50 49 52 53 50 47 47 36 30 24 18 7 2 15 21 23 22 24 24 24 23 22 22 21 21 21 22 22 20 12 8 7 8 7 9 17 31 33 40
77 74 68 54 52 53 57 58 51 50 46 31 22 18 12 3 16 22 23 24 27 28 28 28 27 26 25 24 22 20 19 18 22 25 20 67 66 15 8 10 33 40 49
86 77 63 55 58 58 64 63 55 55 36 26 20 15 5 14 23 24 27 30 30 30 30 30 29 28 29 28 27 25 22 19 18 20 34 26 73 24 10 10 20 44 47
87 76 73 63 69 61 70 68 62 47 32 24 17 5 12 23 26 29 32 32 32 35 37 38 36 34 33 32 31 30 30 27 23 19 20 24 29 28 21 18 27 40 46
90 87 79 79 78 74 78 64 60 38 28 20 7 9 21 26 29 33 33 36 38 41 42 42 43 43 40 40 37 34 33 32 29 30 26 20 20 20 26 28 22 27 33
92 96 82 95 88 63 77 70 46 35 21 7 6 16 26 29 33 35 39 41 44 45 43 43 45 44 43 42 41 40 40 39 36 34 38 26 26 22 20 20 26 29 27
99 98 81 98 75 90 81 52 36 31 6 4 11 23 28 32 36 41 42 44 45 41 40 40 40 41 42 48 46 41 44 48 46 41 48 29 34 34 27 20 18 20 26
97 94 95 75 97 81 62 40 29 7 3 11 19 28 32 36 40 43 44 44 46 43 42 43 40 44 52 53 48 36 42 45 42 39 71 37 32 35 37 35 23 18 17
98 90 86 97 74 48 37 33 7 3 8 15 27 29 35 38 41 42 42 44 46 47 50 48 46 54 52 56 51 48 40 36 40 64 61 41 36 30 25 36 38 33 22
94 87 72 58 46 49 51 8 6 11 17 27 31 33 38 41 42 43 43 43 45 48 52 53 52 56 57 59 49 39 37 32 30 34 31 23 24 31 30 28 27 28 33
66 49 40 37 40 43 28 11 24 21 28 34 35 37 40 42 44 46 49 50 49 53 56 58 59 63 57 60 61 52 38 31 36 28 24 21 20 18 17 16 17 18 21
23 21 24 29 27 25 25 32 27 32 39 41 42 42 42 44 45 50 55 58 67 74 77 69 75 71 66 55 48 39 31 28 36 30 25 21 22 19 16 17 19 18 15
25 21 17 19 26 31 35 33 36 41 45 46 48 52 52 53 57 64 66 61 76 99 82 80 85 77 64 48 32 26 26 28 28 31 31 24 21 24 21 15 16 18 17
30 17 20 30 34 38 40 42 44 44 48 60 65 73 71 76 76 82 92 97 92 93 93 86 79 64 62 46 38 33 29 32 30 27 30 23 19 18 19 16 15 15 15
33 26 28 32 37 35 36 41 45 50 58 56 60 79 83 87 92 99 92 84 96 98 94 73 62 50 41 42 38 37 34 35 32 23 17 19 14 16 16 17 15 16 17
46 39 37 42 44 43 43 45 60 80 65 68 68 74 86 90 96 96 98 100 97 66 65 55 48 46 45 44 47 44 39 29 18 15 15 29 75 47 48 26 12 11 15
54 49 54 59 68 76 84 84 78 67 53 70 72 75 85 83 85 64 49 53 60 53 48 48 50 48 49 52 45 25 14 14 18 29 56 92 95 88 58 33 18 8 8
52 53 62 71 71 69 93 97 61 64 69 78 83 81 56 42 39 38 41 44 49 54 58 52 41 38 31 18 14 15 16 10 22 28 17 31 98 100 97 52 29 14 7
61 63 69 73 77 97 68 39 44 50 56 54 43 36 36 37 42 48 49 44 50 53 44 29 22 17 14 12 13 13 8 11 7 29 78 90 96 92 80 72 48 33 49
64 70 75 80 85 62 32 42 48 45 39 35 36 41 44 47 46 44 45 43 36 25 21 18 16 13 10 8 7 7 6 5 30 36 80 96 87 68 67 44 35 29 11
70 76 80 81 48 32 36 38 39 38 40 45 49 55 55 55 54 50 39 29 22 19 17 13 10 9 7 5 4 6 6 8 14 43 38 42 46 75 89 88 37 22 26
69 76 79 41 37 38 39 43 49 56 61 60 65 64 64 64 65 45 28 25 22 17 13 10 7 5 4 4 4 7 17 45 28 33 30 26 38 68 100 86 58 52 52
75 57 45 42 46 49 55 58 63 72 78 72 76 73 76 64 44 34 27 20 18 14 10 7 5 5 4 4 6 11 15 32 47 51 76 85 90 89 91 80 97 77 51
45 45 44 50 54 56 61 65 67 72 74 76 78 80 81 60 41 27 22 18 15 12 8 6 5 4 4 5 8 22 20 78 98 92 93 94 96 95 98 96 100 88 86
51 49 45 50 57 62 65 68 75 80 82 86 88 87 69 48 32 24 20 16 12 8 6 5 5 5 6 48 95 97 60 97 96 96 95 94 94 93 100 96 91 95 95

GFSSE_700_rhum_012.txt.gz
RH
64 74 61 56 49 39 41 39 38 38 36 31 30 26 20 9 2 10 19 21 20 20 21 22 22 22 21 21 20 20 21 21 22 18 11 8 8 7 9 12 15 25 28
70 75 63 60 49 42 44 41 43 45 44 33 25 20 14 3 12 20 22 21 23 25 26 26 25 25 24 24 23 21 20 19 22 26 23 39 87 22 12 10 12 20 35
78 75 67 62 49 48 50 47 49 46 43 29 21 17 5 11 20 23 24 27 28 28 28 28 27 27 26 26 27 27 26 22 19 20 42 68 77 31 23 12 11 15 38
76 74 71 55 54 55 57 52 53 46 34 24 21 10 8 20 24 26 30 30 30 32 32 32 33 33 32 30 30 29 30 30 28 24 35 29 22 26 25 21 16 20 31
95 80 73 59 62 67 57 62 56 50 32 25 17 6 17 25 27 32 32 33 36 36 37 38 40 39 37 36 37 36 35 34 33 38 26 26 22 20 22 26 26 24 27
93 87 81 72 79 76 72 64 52 39 29 22 8 10 24 27 32 33 37 39 40 39 38 39 40 42 44 44 42 40 42 43 42 49 28 29 29 28 21 19 21 28 28
94 99 99 95 93 84 93 60 48 36 28 13 6 18 26 31 34 38 41 41 39 38 36 38 36 37 43 47 46 42 35 46 45 59 36 37 37 32 33 27 19 18 20
99 98 93 99 96 100 89 59 41 37 19 4 10 24 28 33 38 41 42 42 40 39 41 41 40 47 50 50 52 46 36 33 43 53 53 38 45 32 30 33 33 25 18
96 100 98 98 88 78 58 48 38 34 6 5 17 28 31 35 41 42 44 44 43 46 48 49 47 49 53 51 52 47 38 31 28 66 65 39 38 34 33 27 26 35 34
95 99 99 95 100 72 59 46 38 12 6 11 23 28 33 37 41 42 42 42 44 46 49 53 54 51 59 59 51 49 45 33 29 29 27 28 27 22 20 24 26 24 26
94 88 99 96 76 61 50 36 13 5 8 14 28 30 34 38 40 42 42 43 48 55 55 60 60 58 63 65 62 55 47 40 32 29 23 24 25 24 20 18 16 16 16
80 80 81 80 67 54 52 22 8 14 16 24 31 33 37 39 42 43 46 51 55 58 64 68 71 67 64 70 68 56 41 34 30 34 24 23 21 23 22 21 18 15 16
71 58 45 43 38 34 26 9 22 21 27 35 38 40 42 42 45 47 53 62 66 75 77 84 84 94 81 64 59 50 32 27 28 28 29 25 22 19 19 19 19 17 14
23 20 18 21 22 23 22 30 29 30 38 40 42 42 42 42 60 73 77 76 84 94 98 99 96 96 70 69 54 38 31 30 32 31 28 21 20 16 14 13 13 12 13
26 19 12 12 25 27 32 33 34 39 41 43 46 49 54 80 76 70 76 89 90 91 96 100 97 72 58 53 45 40 40 36 35 26 19 16 14 13 13 13 12 11 11
29 14 16 26 31 30 32 39 45 48 53 52 55 57 73 82 84 84 93 94 99 92 96 88 44 40 38 40 38 41 41 36 27 18 16 14 14 14 16 21 14 12 12
37 25 29 32 36 39 41 44 52 60 62 66 64 70 73 77 80 76 65 47 47 44 42 40 42 46 39 38 34 28 25 19 17 17 13 16 32 24 37 38 16 21 14
40 38 42 43 48 58 76 70 96 81 56 61 60 74 77 80 63 45 39 36 37 39 46 41 36 32 29 25 22 20 18 18 15 10 13 12 15 61 54 45 86 31 15
47 51 60 65 70 71 74 80 88 51 54 70 61 64 64 48 36 34 31 33 39 41 39 36 32 28 25 23 21 17 14 12 11 8 9 21 42 69 98 95 64 56 61
49 55 61 64 70 76 88 48 34 36 42 42 44 40 35 34 37 40 44 47 49 46 38 32 27 25 24 24 19 15 13 13 8 7 16 38 57 60 78 94 98 93 65
50 54 66 70 76 83 68 32 34 36 35 34 36 41 45 54 52 53 53 53 48 38 33 28 26 24 22 20 18 14 9 8 8 9 9 18 35 59 80 95 88 90 70
56 58 62 70 79 76 46 35 37 37 41 45 45 49 53 59 63 65 66 52 41 37 30 28 25 21 19 16 11 9 8 9 8 9 14 22 50 71 79 75 64 74 74
85 86 77 69 74 44 37 38 40 46 54 55 54 56 55 51 63 65 56 45 38 33 29 25 21 18 14 11 7 6 6 8 8 12 12 15 22 18 30 41 81 100 96
65 75 82 94 51 40 42 44 53 51 51 58 64 71 62 70 74 58 51 40 33 28 24 20 15 11 8 6 5 5 5 6 10 27 50 38 48 69 92 89 80 90 91
50 73 98 63 42 47 47 52 51 52 60 63 70 77 73 65 54 50 43 36 30 25 20 15 9 7 5 5 5 6 9 49 82 91 67 29 39 48 71 100 97 80 74
73 72 52 45 46 49 50 49 55 61 63 68 76 81 90 74 51 47 40 33 26 21 15 8 6 5 6 13 19 27 86 95 95 54 44 42 51 47 65 92 96 93 72